When you browse on this site, cookies collect data to enhance your experience and personalize the content and advertising you see.
Visit our Privacy Policy to learn more. By continuing to use the site, you agree to this use of cookies and data.
  • en France
  • Liste des pays
  • À 7 jours
  • Température de l'eau
  • Carte satellitaire
  • Carte météo
  • Widgets météo
  • user-avatar
    Se connecter

    Météo par heure à Bakou

    Ce jour, 19 Avril, Vendredi

    Heure Température Précipitation Vent Pression Humidité
    00:00 +5°C° 0 mm 12 m/s 764 mmHg 76%
    01:00 +6°C° 0 mm 11 m/s 764 mmHg 76%
    02:00 +6°C° 0 mm 11 m/s 763 mmHg 76%
    03:00 +6°C° 0 mm 10 m/s 763 mmHg 77%
    04:00 +6°C° 0 mm 10 m/s 763 mmHg 77%
    05:00 +5°C° 0 mm 9 m/s 764 mmHg 77%
    06:00 +5°C° 0 mm 9 m/s 764 mmHg 77%
    07:00 +6°C° 0 mm 9 m/s 764 mmHg 76%
    08:00 +6°C° 0 mm 9 m/s 764 mmHg 76%
    09:00 +6°C° 0 mm 8 m/s 764 mmHg 75%
    10:00 +6°C° 0 mm 8 m/s 764 mmHg 74%
    11:00 +7°C° 0 mm 8 m/s 764 mmHg 73%
    12:00 +8°C° 0 mm 7 m/s 764 mmHg 71%
    13:00 +8°C° 0 mm 7 m/s 764 mmHg 71%
    14:00 +8°C° 0 mm 7 m/s 764 mmHg 70%
    15:00 +8°C° 0 mm 7 m/s 764 mmHg 70%
    16:00 +7°C° 0 mm 8 m/s 764 mmHg 70%
    17:00 +7°C° 0 mm 8 m/s 764 mmHg 71%
    18:00 +6°C° 0 mm 9 m/s 764 mmHg 71%
    19:00 +6°C° 0 mm 9 m/s 764 mmHg 71%
    20:00 +6°C° 0 mm 9 m/s 764 mmHg 72%
    21:00 +6°C° 0 mm 10 m/s 764 mmHg 72%
    22:00 +6°C° 0.4 mm 10 m/s 764 mmHg 73%
    23:00 +5°C° 0.4 mm 10 m/s 764 mmHg 73%

    Demain, 20 Avril, Samedi

    Heure Température Précipitation Vent Pression Humidité
    00:00 +5°C° 0.4 mm 10 m/s 764 mmHg 74%
    01:00 +5°C° 0 mm 10 m/s 764 mmHg 74%
    02:00 +5°C° 0 mm 10 m/s 763 mmHg 74%
    03:00 +5°C° 0 mm 10 m/s 763 mmHg 74%
    04:00 +5°C° 0.1 mm 10 m/s 763 mmHg 74%
    05:00 +5°C° 0.1 mm 10 m/s 763 mmHg 74%
    06:00 +4°C° 0.1 mm 11 m/s 763 mmHg 75%
    07:00 +5°C° 0.7 mm 10 m/s 763 mmHg 76%
    08:00 +5°C° 0.7 mm 10 m/s 763 mmHg 77%
    09:00 +5°C° 0.7 mm 10 m/s 763 mmHg 78%
    10:00 +5°C° 0.8 mm 10 m/s 764 mmHg 77%
    11:00 +6°C° 0.8 mm 10 m/s 764 mmHg 77%
    12:00 +6°C° 0.8 mm 10 m/s 764 mmHg 77%
    13:00 +6°C° 0.1 mm 10 m/s 764 mmHg 75%
    14:00 +7°C° 0.1 mm 10 m/s 764 mmHg 72%
    15:00 +7°C° 0.1 mm 10 m/s 764 mmHg 70%
    16:00 +7°C° 0 mm 10 m/s 764 mmHg 71%
    17:00 +7°C° 0 mm 9 m/s 764 mmHg 72%
    18:00 +6°C° 0 mm 9 m/s 765 mmHg 72%
    19:00 +6°C° 0 mm 8 m/s 765 mmHg 73%
    20:00 +6°C° 0 mm 8 m/s 766 mmHg 73%
    21:00 +6°C° 0 mm 7 m/s 766 mmHg 74%
    22:00 +6°C° 0 mm 7 m/s 766 mmHg 75%
    23:00 +6°C° 0 mm 7 m/s 766 mmHg 76%

    Après-demain, 21 Avril, Dimanche

    Heure Température Précipitation Vent Pression Humidité
    00:00 +7°C° 0 mm 6 m/s 766 mmHg 77%
    01:00 +5°C° 0 mm 6 m/s 766 mmHg 77%
    02:00 +5°C° 0 mm 6 m/s 766 mmHg 77%
    03:00 +5°C° 0 mm 6 m/s 766 mmHg 77%
    04:00 +5°C° 0 mm 6 m/s 766 mmHg 75%
    05:00 +5°C° 0 mm 6 m/s 766 mmHg 74%
    06:00 +7°C° 0 mm 6 m/s 766 mmHg 73%
    07:00 +7°C° 0 mm 6 m/s 766 mmHg 69%
    08:00 +8°C° 0 mm 6 m/s 766 mmHg 65%
    09:00 +9°C° 0 mm 5 m/s 767 mmHg 61%
    10:00 +9°C° 0 mm 5 m/s 766 mmHg 60%
    11:00 +10°C° 0 mm 5 m/s 766 mmHg 59%
    12:00 +10°C° 0 mm 5 m/s 766 mmHg 57%
    13:00 +10°C° 0 mm 5 m/s 766 mmHg 58%
    14:00 +12°C° 0 mm 5 m/s 766 mmHg 58%
    15:00 +12°C° 0 mm 5 m/s 765 mmHg 59%
    16:00 +10°C° 0 mm 5 m/s 766 mmHg 60%
    17:00 +11°C° 0 mm 4 m/s 766 mmHg 62%
    18:00 +11°C° 0 mm 4 m/s 766 mmHg 64%
    19:00 +11°C° 0 mm 4 m/s 766 mmHg 64%
    20:00 +10°C° 0 mm 4 m/s 766 mmHg 65%
    21:00 +10°C° 0 mm 4 m/s 767 mmHg 65%
    22:00 +10°C° 0 mm 4 m/s 766 mmHg 65%
    23:00 +10°C° 0 mm 4 m/s 766 mmHg 66%

    22 Avril, Lundi

    Heure Température Précipitation Vent Pression Humidité
    00:00 +8°C° 0 mm 4 m/s 766 mmHg 66%
    01:00 +8°C° 0 mm 4 m/s 766 mmHg 68%
    02:00 +8°C° 0 mm 5 m/s 765 mmHg 69%
    03:00 +8°C° 0 mm 6 m/s 765 mmHg 70%
    04:00 +8°C° 0 mm 6 m/s 765 mmHg 71%
    05:00 +8°C° 0 mm 7 m/s 765 mmHg 72%
    06:00 +8°C° 0 mm 7 m/s 765 mmHg 73%
    07:00 +9°C° 0 mm 8 m/s 765 mmHg 71%
    08:00 +10°C° 0 mm 9 m/s 765 mmHg 68%
    09:00 +9°C° 0 mm 10 m/s 765 mmHg 66%
    10:00 +11°C° 0 mm 10 m/s 765 mmHg 64%
    11:00 +11°C° 0 mm 10 m/s 765 mmHg 63%
    12:00 +11°C° 0 mm 10 m/s 765 mmHg 61%
    13:00 +11°C° 0 mm 10 m/s 764 mmHg 61%
    14:00 +11°C° 0 mm 10 m/s 764 mmHg 61%
    15:00 +11°C° 0 mm 10 m/s 764 mmHg 61%
    16:00 +11°C° 0 mm 11 m/s 764 mmHg 61%
    17:00 +10°C° 0 mm 12 m/s 763 mmHg 60%
    18:00 +10°C° 0 mm 13 m/s 763 mmHg 59%
    19:00 +9°C° 0 mm 13 m/s 764 mmHg 60%
    20:00 +9°C° 0 mm 13 m/s 764 mmHg 61%
    21:00 +9°C° 0 mm 14 m/s 765 mmHg 61%
    22:00 +9°C° 0 mm 14 m/s 765 mmHg 61%
    23:00 +9°C° 0 mm 14 m/s 764 mmHg 61%

    23 Avril, Mardi

    Heure Température Précipitation Vent Pression Humidité
    00:00 +9°C° 0 mm 14 m/s 764 mmHg 60%
    01:00 +9°C° 0 mm 14 m/s 765 mmHg 59%
    02:00 +9°C° 0 mm 15 m/s 765 mmHg 57%
    03:00 +9°C° 0 mm 15 m/s 765 mmHg 56%
    04:00 +9°C° 0 mm 15 m/s 765 mmHg 57%
    05:00 +9°C° 0 mm 14 m/s 766 mmHg 59%
    06:00 +9°C° 0 mm 14 m/s 766 mmHg 60%
    07:00 +9°C° 0 mm 14 m/s 767 mmHg 59%
    08:00 +9°C° 0 mm 13 m/s 767 mmHg 58%
    09:00 +10°C° 0 mm 12 m/s 768 mmHg 57%
    10:00 +10°C° 0 mm 12 m/s 768 mmHg 55%
    11:00 +12°C° 0 mm 11 m/s 768 mmHg 53%
    12:00 +12°C° 0 mm 11 m/s 768 mmHg 51%
    13:00 +12°C° 0 mm 10 m/s 768 mmHg 51%
    14:00 +12°C° 0 mm 9 m/s 768 mmHg 51%
    15:00 +12°C° 0 mm 9 m/s 769 mmHg 51%
    16:00 +12°C° 0 mm 8 m/s 769 mmHg 53%
    17:00 +11°C° 0 mm 8 m/s 769 mmHg 54%
    18:00 +11°C° 0 mm 7 m/s 769 mmHg 55%
    19:00 +11°C° 0 mm 7 m/s 770 mmHg 56%
    20:00 +10°C° 0 mm 7 m/s 770 mmHg 58%
    21:00 +10°C° 0 mm 7 m/s 770 mmHg 59%
    22:00 +10°C° 0 mm 7 m/s 770 mmHg 59%
    23:00 +9°C° 0 mm 7 m/s 770 mmHg 59%

    24 Avril, Mercredi

    Heure Température Précipitation Vent Pression Humidité
    00:00 +9°C° 0 mm 7 m/s 770 mmHg 59%
    01:00 +9°C° 0 mm 7 m/s 770 mmHg 59%
    02:00 +9°C° 0 mm 7 m/s 770 mmHg 58%
    03:00 +9°C° 0 mm 7 m/s 770 mmHg 58%
    04:00 +9°C° 0 mm 6 m/s 770 mmHg 56%
    05:00 +9°C° 0 mm 6 m/s 770 mmHg 54%
    06:00 +9°C° 0 mm 6 m/s 771 mmHg 51%
    07:00 +10°C° 0 mm 6 m/s 771 mmHg 47%
    08:00 +11°C° 0 mm 6 m/s 771 mmHg 43%
    09:00 +13°C° 0 mm 5 m/s 771 mmHg 39%
    10:00 +13°C° 0 mm 5 m/s 770 mmHg 38%
    11:00 +14°C° 0 mm 5 m/s 770 mmHg 36%
    12:00 +14°C° 0 mm 5 m/s 770 mmHg 35%
    13:00 +14°C° 0 mm 4 m/s 770 mmHg 35%
    14:00 +14°C° 0 mm 4 m/s 769 mmHg 35%
    15:00 +14°C° 0 mm 4 m/s 769 mmHg 34%
    16:00 +14°C° 0 mm 4 m/s 769 mmHg 35%
    17:00 +14°C° 0 mm 3 m/s 769 mmHg 36%
    18:00 +14°C° 0 mm 2 m/s 769 mmHg 38%
    19:00 +14°C° 0 mm 2 m/s 769 mmHg 40%
    20:00 +14°C° 0 mm 2 m/s 769 mmHg 42%
    21:00 +13°C° 0 mm 2 m/s 769 mmHg 44%
    22:00 +13°C° 0 mm 2 m/s 769 mmHg 47%
    23:00 +12°C° 0 mm 3 m/s 768 mmHg 49%
    Voir plus